Orbital Elements at Epoch 2459000.5 (2020-May-31.0) TDB
Reference: JPL 12 (heliocentric ecliptic J2000)
Element | Value | Uncertainty (1-sigma) | Units |
e | .343628513699869 | 5.3372e-08 | |
a | 2.645691093209926 | 2.0972e-08 | au |
q | 1.736556195141218 | 1.3492e-07 | au |
i | 12.66695181864943 | 6.4464e-06 | deg |
node | 31.97246260726333 | 3.5759e-05 | deg |
peri | 237.7799562575795 | 3.8618e-05 | deg |
M | 266.0370509437041 | 1.8533e-05 | deg |
tp | 2459410.761976316717 (2021-Jul-15.26197632) | 8.4891e-05 | TDB |
period | 1571.835632633563 4.30 | 1.869e-05 5.117e-08 | d yr |
n | .2290315809909659 | 2.7233e-09 | deg/d |
Q | 3.554825991278635 | 2.8179e-08 | au |
|
| | Orbit Determination Parameters
Additional Information
|